KOSEN 1
1 49402U 21102H   25337.63925291  .00011815  00000-0  49807-3 0  9999
2 49402  97.3487  18.7205 0014898 171.6184 188.5305 15.23369862224216
HO-113
1 50466U 21131B   25337.83233279  .00001008  00000-0  32680-3 0  9997
2 50466  98.5061  66.2988 0003507 338.5936  21.5105 14.41092427206975
SNUGLITE 2
1 52899U 22065F   25337.64259875  .00002085  00000-0  40874-3 0  9995
2 52899  98.1923 118.2271 0006394 278.9086  81.1392 14.63792798182383
UmKA 1 (RS40S)
1 57172U 23091G   25337.84373253  .00011449  00000-0  56482-3 0  9999
2 57172  97.5360  32.3480 0015059  81.4261 278.8678 15.17972966134340
CubeBel-2 (EU11S)
1 57175U 23091K   25337.79060709  .00021151  00000-0  88201-3 0  9990
2 57175  97.5360  34.7034 0012382  84.4606 275.8043 15.23643051134492
RS-38S
1 57189U 23091Z   25337.87193985  .00028563  00000-0  10151-2 0  9999
2 57189  97.5384  39.1603 0009396  51.9002 308.3083 15.28928800134774
SONATE-2
1 59112U 24043Q   25337.32465975  .00035610  00000-0  77192-3 0  9996
2 59112  97.5322 113.2299 0008947 195.9446 164.1521 15.44296721 97525
MO-122
1 60209U 24125G   25337.53169441  .00042203  00000-0  87889-3 0  9998
2 60209  97.2532 187.9017 0013590 214.0632 145.9746 15.45384788 79180
GRBBeta
1 60237U 24128C   25337.78003495  .00006928  00000-0  48841-3 0  9994
2 60237  61.9891 180.8969 0056599  94.9138 265.8419 15.04607680 76840
Curium One
1 60242U 24128H   25337.78232144  .00012397  00000-0  77195-3 0  9996
2 60242  61.9780 175.9756 0056483  91.8801 268.8763 15.08618852 76939
ROBUSTA-3A
1 60243U 24128J   25337.78181892  .00010882  00000-0  69110-3 0  9995
2 60243  61.9856 177.4710 0056475  89.3473 271.4091 15.08006271 76917
CatSat
1 60246U 24125J   25337.57823691  .00049819  00000-0  12383-2 0  9993
2 60246  97.2329 185.0659 0033895 177.5961 182.5454 15.39543819 77113
HYPERVIEW-1G (RS66S)
1 61772U 24199AP  25337.88299507  .00065361  00000-0  12955-2 0  9991
2 61772  97.3222 207.2125 0008209 278.6746  81.3574 15.46787382104248
AO-123
1 61781U 24199AY  25337.85380032  .00017933  00000-0  58704-3 0  9997
2 61781  97.3260 203.4017 0013154 291.9631  68.0213 15.31650401103981
ZIMSAT 2
1 61783U 24199BA  25337.87760443  .00258058  00000-0  21950-2 0  9996
2 61783  97.3113 210.4260 0002951 262.3907  97.7020 15.68801008107619
HADES-R (SO-124)
1 62690U 25009CK  25337.19087733  .00171221  00000-0  25071-2 0  9998
2 62690  97.3906  59.4701 0001990 221.0194 139.0911 15.54977280 49299
HYDRA-T
1 62692U 25009CM  25337.17924644  .00190500  00000-0  26390-2 0  9995
2 62692  97.3898  59.6361 0001915 234.9386 125.1690 15.56423211 49302
JINJUSat 1B
1 63210U 25052A   25337.21474610  .00020920  00000-0  80964-3 0  9994
2 63210  97.4210 229.4320 0005995  67.1993 292.9878 15.26202060 40139
NUSHSAT 1
1 63211U 25052B   25337.28192020  .00024664  00000-0  92593-3 0  9994
2 63211  97.4192 229.6077 0006016  70.2710 289.9178 15.27178426 40157
TEVEL2-4
1 63213U 25052D   25337.14763132  .00024410  00000-0  93436-3 0  9995
2 63213  97.4114 229.0457 0005188  81.5931 278.5895 15.26540232 40122
TEVEL2-5
1 63214U 25052E   25337.21818861  .00022002  00000-0  84447-3 0  9991
2 63214  97.4109 229.1046 0005196  81.9935 278.1893 15.26472436 40134
TEVEL2-6
1 63215U 25052F   25337.42186373  .00024763  00000-0  95074-3 0  9995
2 63215  97.4113 229.2955 0005330  81.6576 278.5266 15.26435546 40160
TEVEL2-1
1 63217U 25052H   25337.13474198  .00024095  00000-0  93456-3 0  9990
2 63217  97.4089 228.8294 0005255  90.8043 269.3797 15.26103804 40113
TEVEL2-3
1 63218U 25052J   25337.19964459  .00022979  00000-0  89091-3 0  9990
2 63218  97.4091 228.8989 0005303  91.8082 268.3764 15.26126016 40120
TEVEL2-2
1 63219U 25052K   25337.13551930  .00024080  00000-0  93393-3 0  9996
2 63219  97.4086 228.8305 0005243  92.0354 268.1485 15.26104859 40113
TEVEL2-9
1 63237U 25052AD  25337.41736451  .00021272  00000-0  86177-3 0  9992
2 63237  97.4154 228.8297 0008975 106.6994 253.5229 15.24647401 40124
TEVEL2-7
1 63238U 25052AE  25337.43037809  .00021758  00000-0  88505-3 0  9992
2 63238  97.4154 228.8187 0009071 106.9069 253.3164 15.24506159 40127
TEVEL2-8
1 63239U 25052AF  25337.23894128  .00021272  00000-0  86629-3 0  9992
2 63239  97.4151 228.6139 0009061 107.6052 252.6176 15.24470323 40093
HYDRA-W
1 63490U 25052BL  25337.21810149  .00079486  00000-0  20052-2 0  9997
2 63490  97.4076 230.8746 0011381  94.6674 265.5871 15.39494175 40250
HADES-ICM (SO-125)
1 63492U 25052BN  25336.94115777  .00078388  00000-0  20957-2 0  9997
2 63492  97.4086 230.3521 0011450  99.8021 260.4518 15.37711582 40196
Dragonfly
1 65729U 98067XH  25336.99954550  .00158902  00000-0  13752-2 0  9999
2 65729  51.6251 185.4963 0006566 216.9941 143.0603 15.68122428 11639
RSP-03
1 65732U 98067XL  25337.49292750  .00124067  00000-0  11877-2 0  9997
2 65732  51.6268 183.5455 0006714 194.5312 165.5491 15.65753404 11718
GHS-01
1 65733U 98067XM  25336.83887637  .00180652  00000-0  14391-2 0  9995
2 65733  51.6280 185.9293 0006994 215.3541 144.6993 15.70056093 11626
BOTAN
1 65942U 98067XP  25336.99107280  .00108801  00000-0  12911-2 0  9995
2 65942  51.6288 188.4479 0004431 171.5775 188.5294 15.60340743  8349
CEVROSAT1
1 98526U 25248E   25313.13142326  .00000000  00000-0  19360-3 0    02
2 98526  45.4084 218.4764 0001315 254.8982 242.1062 15.17981583    02
